Elefsis, Greece

5:26 PM EEST on June 27, 2017 (GMT +0300)
Elefsis Air Base

Weather History for LGEL - October, 2014

Change the Weather History Date:

Monday, October 6, 2014

  Actual Average Record
Temperature  
Mean Temperature 66 °F -  
Max Temperature 74 °F 70 °F 89 °F (2003)
Min Temperature 58 °F 55 °F 48 °F (2013)
Cooling Degree Days 1    
Growing Degree Days 16 (Base 50)    
Moisture  
Dew Point 55 °F    
Average Humidity 63    
Maximum Humidity 78    
Minimum Humidity 42    
Precipitation  
Precipitation 0.00 in - - ()
Sea Level Pressure  
Sea Level Pressure 30.12 in    
Wind  
Wind Speed 3 mph ()    
Max Wind Speed 13 mph    
Max Gust Speed -    
Visibility 6.2 miles    
Events      
Averages and records for this station are not official NWS values.
T = Trace of Precipitation, MM = Missing Value Source: Averaged Metar Reports

Daily Weather History Graph

Daily Weather History Graph

Search for Another Location

Airport or City:

Trip Planner

Search our weather history database for the weather conditions in past years. The results will help you decide how hot, cold, wet, or windy it might be!

Date:

Astronomy

Oct. 06, 2014 Rise Set
Actual Time 7:25 AM EEST 7:01 PM EEST
Civil Twilight 6:59 AM EEST 7:27 PM EEST
Nautical Twilight 6:28 AM EEST 7:58 PM EEST
Astronomical Twilight 5:58 AM EEST 8:28 PM EEST
Moon 5:44 PM EEST (10/6) 4:52 AM EEST (10/6)
Length of Visible Light 12h 28m
Length of Day
11h 35m
Waxing Gibbous, 94% of the Moon is Illuminated
Oct 6
Waxing Gibbous
Oct 8
Full
Oct 15
Last Quarter
Oct 24
New
Oct 31
First Quarter

Hourly Weather History & Observations

Time (EEST) Temp. Dew Point Humidity Pressure Visibility Wind Dir Wind Speed Gust Speed Precip Events Conditions
12:00 AM 66 °F 51 °F 49% 30.12 in 6 mi ENE 3.5 mph - -   Partly Cloudy
12:20 AM 66.2 °F 51.8 °F 60% 30.09 in 6.2 mi Calm Calm - N/A   Mostly Cloudy
12:50 AM 64.4 °F 51.8 °F 64% 30.09 in 6.2 mi Calm Calm - N/A   Mostly Cloudy
1:20 AM 64.4 °F 51.8 °F 64% 30.09 in 6.2 mi Calm Calm - N/A   Mostly Cloudy
1:50 AM 64.4 °F 51.8 °F 64% 30.09 in 6.2 mi Calm Calm - N/A   Mostly Cloudy
2:20 AM 64.4 °F 51.8 °F 64% 30.12 in 6.2 mi NW 5.8 mph - N/A   Mostly Cloudy
2:50 AM 64.4 °F 51.8 °F 64% 30.12 in 6.2 mi NNW 9.2 mph - N/A   Mostly Cloudy
3:00 AM 64 °F 52 °F 55% 30.14 in 6 mi NNW 9.2 mph - -   Partly Cloudy
3:20 AM 64.4 °F 51.8 °F 64% 30.12 in 6.2 mi NNW 6.9 mph - N/A   Mostly Cloudy
3:50 AM 64.4 °F 51.8 °F 64% 30.12 in 6.2 mi Calm Calm - N/A   Mostly Cloudy
4:20 AM 64.4 °F 51.8 °F 64% 30.09 in 6.2 mi Calm Calm - N/A   Scattered Clouds
4:50 AM 60.8 °F 50.0 °F 68% 30.09 in 6.2 mi Calm Calm - N/A   Partly Cloudy
5:20 AM 60.8 °F 50.0 °F 68% 30.09 in 6.2 mi Calm Calm - N/A   Partly Cloudy
5:50 AM 59.0 °F 51.8 °F 77% 30.09 in - North 3.5 mph - N/A   Clear
6:00 AM 59 °F 51 °F 67% 30.12 in 6 mi North 3.5 mph - -  
6:20 AM 59.0 °F 51.8 °F 77% 30.12 in 6.2 mi Calm Calm - N/A   Partly Cloudy
6:50 AM 59.0 °F 51.8 °F 77% 30.12 in 6.2 mi North 4.6 mph - N/A   Scattered Clouds
7:20 AM 60.8 °F 51.8 °F 72% 30.12 in 6.2 mi North 4.6 mph - N/A   Mostly Cloudy
7:50 AM 62.6 °F 51.8 °F 68% 30.12 in 6.2 mi North 4.6 mph - N/A   Mostly Cloudy
8:20 AM 64.4 °F 51.8 °F 64% 30.12 in 6.2 mi North 4.6 mph - N/A   Mostly Cloudy
8:50 AM 64.4 °F 53.6 °F 68% 30.15 in 6.2 mi Calm Calm - N/A   Mostly Cloudy
9:00 AM 65 °F 53 °F 56% 30.16 in 6 mi NNW 4.6 mph - -   Mostly Cloudy
9:20 AM 68.0 °F 53.6 °F 60% 30.15 in 6.2 mi NNW 4.6 mph - N/A   Mostly Cloudy
9:50 AM 69.8 °F 53.6 °F 56% 30.15 in 6.2 mi Calm Calm - N/A   Mostly Cloudy
10:20 AM 71.6 °F 53.6 °F 53% 30.15 in 6.2 mi Calm Calm - N/A   Mostly Cloudy
10:50 AM 71.6 °F 55.4 °F 57% 30.15 in 6.2 mi Calm Calm - N/A   Mostly Cloudy
11:20 AM 73.4 °F 55.4 °F 53% 30.15 in 6.2 mi Calm Calm - N/A   Scattered Clouds
12:00 PM 74 °F 56 °F 42% 30.16 in 6 mi SSE 8.1 mph - -   Partly Cloudy
12:20 PM 75.2 °F 55.4 °F 50% 30.15 in 6.2 mi SSE 4.6 mph - N/A   Scattered Clouds
12:50 PM 75.2 °F 57.2 °F 53% 30.15 in 6.2 mi South 6.9 mph - N/A   Scattered Clouds
1:20 PM 73.4 °F 57.2 °F 57% 30.12 in 6.2 mi SSW 9.2 mph - N/A   Mostly Cloudy
1:50 PM 73.4 °F 57.2 °F 57% 30.12 in 6.2 mi SSW 10.4 mph - N/A   Mostly Cloudy
2:20 PM 73.4 °F 57.2 °F 57% 30.12 in 6.2 mi SSW 9.2 mph - N/A   Mostly Cloudy
2:50 PM 73.4 °F 57.2 °F 57% 30.12 in 6.2 mi South 10.4 mph - N/A   Mostly Cloudy
3:00 PM 73 °F 58 °F 49% 30.13 in 6 mi South 10.4 mph - -   Mostly Cloudy
3:20 PM 73.4 °F 59.0 °F 61% 30.12 in 6.2 mi South 12.7 mph - N/A   Mostly Cloudy
3:50 PM 73.4 °F 59.0 °F 61% 30.09 in 6.2 mi South 10.4 mph - N/A   Mostly Cloudy
4:20 PM 73.4 °F 59.0 °F 61% 30.09 in 6.2 mi South 6.9 mph - N/A   Mostly Cloudy
4:50 PM 73.4 °F 59.0 °F 61% 30.09 in 6.2 mi South 11.5 mph - N/A   Mostly Cloudy
5:20 PM 73.4 °F 59.0 °F 61% 30.09 in 6.2 mi South 9.2 mph - N/A   Mostly Cloudy
5:50 PM 73.4 °F 60.8 °F 65% 30.09 in 6.2 mi South 6.9 mph - N/A   Mostly Cloudy
6:00 PM 73 °F 60 °F 54% 30.10 in 6 mi South 6.9 mph - -   Mostly Cloudy
6:20 PM 73.4 °F 60.8 °F 65% 30.09 in 6.2 mi South 5.8 mph - N/A   Mostly Cloudy
6:50 PM 71.6 °F 60.8 °F 69% 30.09 in 6.2 mi South 5.8 mph - N/A   Scattered Clouds
7:20 PM 71.6 °F 60.8 °F 69% 30.09 in 6.2 mi South 4.6 mph - N/A   Scattered Clouds
7:50 PM 71.6 °F 60.8 °F 69% 30.09 in 6.2 mi South 4.6 mph - N/A   Scattered Clouds
8:20 PM 69.8 °F 59.0 °F 68% 30.09 in 6.2 mi Calm Calm - N/A   Scattered Clouds
8:50 PM 69.8 °F 62.6 °F 78% 30.09 in 6.2 mi Calm Calm - N/A   Scattered Clouds
9:00 PM 71 °F 62 °F 67% 30.12 in 6 mi Calm Calm - -   Partly Cloudy
9:20 PM 71.6 °F 59.0 °F 64% 30.09 in 6.2 mi Calm Calm - N/A   Scattered Clouds
9:50 PM 69.8 °F 57.2 °F 64% 30.12 in 6.2 mi Calm Calm - N/A   Scattered Clouds
10:20 PM 68.0 °F 57.2 °F 68% 30.12 in 6.2 mi Calm Calm - N/A   Scattered Clouds
10:50 PM 68.0 °F 57.2 °F 68% 30.15 in 6.2 mi Calm Calm - N/A   Scattered Clouds
11:20 PM 68.0 °F 57.2 °F 68% 30.15 in 6.2 mi Calm Calm - N/A   Scattered Clouds
11:50 PM 68.0 °F 57.2 °F 68% 30.15 in 6.2 mi Calm Calm - N/A   Mostly Cloudy